Terminal Aerodrome Forecast
Issued by NWS

Home | Current Version | Previous Version | Text Only | Print | Product List | Glossary On
Versions: 1 2 3 4 5 6 7 8 9 10 11 12 13 14 15 16 17 18 19 20
000
FTUS44 KTSA 231100
TAFMLC
TAF
KMLC 231126Z 2312/2412 18005KT P6SM OVC016
     FM231500 17011G25KT P6SM BKN015
     FM231800 22010G25KT P6SM SCT025 BKN050
     FM240100 29018G28KT P6SM BKN050
     FM240600 27007KT P6SM SKC=

USA.gov is the U.S. government's official web portal to all federal, state and local government web resources and services.